Year,Month,Day,Hour,Minute,Value (Times are PST for temperature in C)
2018,04,22,00,00,6.10
2018,04,22,00,01,6.10
2018,04,22,00,02,6.00
2018,04,22,00,03,6.00
2018,04,22,00,04,6.00
2018,04,22,00,05,6.00
2018,04,22,00,06,6.00
2018,04,22,00,07,5.90
2018,04,22,00,08,5.90
2018,04,22,00,09,5.90
2018,04,22,00,10,5.90
2018,04,22,00,11,5.80
2018,04,22,00,12,5.80
2018,04,22,00,13,5.80
2018,04,22,00,14,5.80
2018,04,22,00,15,5.80
2018,04,22,00,16,5.80
2018,04,22,00,17,5.70
2018,04,22,00,18,5.70
2018,04,22,00,19,5.70
2018,04,22,00,20,5.70
2018,04,22,00,21,5.70
2018,04,22,00,22,5.60
2018,04,22,00,23,5.60
2018,04,22,00,24,5.60
2018,04,22,00,25,5.60
2018,04,22,00,26,5.60
2018,04,22,00,27,5.60
2018,04,22,00,28,5.50
2018,04,22,00,29,5.50
2018,04,22,00,30,5.50
2018,04,22,00,31,5.50
2018,04,22,00,32,5.40
2018,04,22,00,33,5.40
2018,04,22,00,34,5.40
2018,04,22,00,35,5.40
2018,04,22,00,36,5.40
2018,04,22,00,37,5.40
2018,04,22,00,38,5.40
2018,04,22,00,39,5.40
2018,04,22,00,40,5.30
2018,04,22,00,41,5.30
2018,04,22,00,42,5.30
2018,04,22,00,43,5.30
2018,04,22,00,44,5.30
2018,04,22,00,45,5.20
2018,04,22,00,46,5.20
2018,04,22,00,47,5.20
2018,04,22,00,48,5.20
2018,04,22,00,49,5.20
2018,04,22,00,50,5.20
2018,04,22,00,51,5.20
2018,04,22,00,52,5.10
2018,04,22,00,53,5.10
2018,04,22,00,54,5.10
2018,04,22,00,55,5.10
2018,04,22,00,56,5.10
2018,04,22,00,57,5.10
2018,04,22,00,58,5.10
2018,04,22,00,59,5.10
2018,04,22,01,00,5.10
2018,04,22,01,01,5.10
2018,04,22,01,02,5.10
2018,04,22,01,03,5.10
2018,04,22,01,04,5.10
2018,04,22,01,05,5.10
2018,04,22,01,06,5.10
2018,04,22,01,07,5.10
2018,04,22,01,08,5.10
2018,04,22,01,09,5.10
2018,04,22,01,10,5.10
2018,04,22,01,11,5.10
2018,04,22,01,12,5.00
2018,04,22,01,13,5.00
2018,04,22,01,14,5.00
2018,04,22,01,15,5.00
2018,04,22,01,16,4.90
2018,04,22,01,17,4.90
2018,04,22,01,18,4.90
2018,04,22,01,19,4.90
2018,04,22,01,20,4.80
2018,04,22,01,21,4.80
2018,04,22,01,22,4.80
2018,04,22,01,23,4.80
2018,04,22,01,24,4.70
2018,04,22,01,25,4.70
2018,04,22,01,26,4.70
2018,04,22,01,27,4.70
2018,04,22,01,28,4.70
2018,04,22,01,29,4.70
2018,04,22,01,30,4.60
2018,04,22,01,31,4.60
2018,04,22,01,32,4.60
2018,04,22,01,33,4.60
2018,04,22,01,34,4.60
2018,04,22,01,35,4.60
2018,04,22,01,36,4.60
2018,04,22,01,37,4.60
2018,04,22,01,38,4.60
2018,04,22,01,39,4.60
2018,04,22,01,40,4.60
2018,04,22,01,41,4.60
2018,04,22,01,42,4.60
2018,04,22,01,43,4.60
2018,04,22,01,44,4.60
2018,04,22,01,45,4.70
2018,04,22,01,46,4.70
2018,04,22,01,47,4.70
2018,04,22,01,48,4.70
2018,04,22,01,49,4.70
2018,04,22,01,50,4.60
2018,04,22,01,51,4.60
2018,04,22,01,52,4.50
2018,04,22,01,53,4.50
2018,04,22,01,54,4.50
2018,04,22,01,55,4.40
2018,04,22,01,56,4.40
2018,04,22,01,57,4.40
2018,04,22,01,58,4.40
2018,04,22,01,59,4.40
2018,04,22,02,00,4.50
2018,04,22,02,01,4.50
2018,04,22,02,02,4.50
2018,04,22,02,03,4.50
2018,04,22,02,04,4.50
2018,04,22,02,05,4.50
2018,04,22,02,06,4.50
2018,04,22,02,07,4.50
2018,04,22,02,08,4.50
2018,04,22,02,09,4.50
2018,04,22,02,10,4.40
2018,04,22,02,11,4.40
2018,04,22,02,12,4.40
2018,04,22,02,13,4.40
2018,04,22,02,14,4.30
2018,04,22,02,15,4.30
2018,04,22,02,16,4.30
2018,04,22,02,17,4.30
2018,04,22,02,18,4.30
2018,04,22,02,19,4.30
2018,04,22,02,20,4.30
2018,04,22,02,21,4.30
2018,04,22,02,22,4.30
2018,04,22,02,23,4.20
2018,04,22,02,24,4.20
2018,04,22,02,25,4.20
2018,04,22,02,26,4.20
2018,04,22,02,27,4.20
2018,04,22,02,28,4.20
2018,04,22,02,29,4.20
2018,04,22,02,30,4.20
2018,04,22,02,31,4.20
2018,04,22,02,32,4.20
2018,04,22,02,33,4.20
2018,04,22,02,34,4.20
2018,04,22,02,35,4.20
2018,04,22,02,36,4.10
2018,04,22,02,37,4.10
2018,04,22,02,38,4.10
2018,04,22,02,39,4.10
2018,04,22,02,40,4.10
2018,04,22,02,41,4.10
2018,04,22,02,42,4.00
2018,04,22,02,43,4.00
2018,04,22,02,44,4.00
2018,04,22,02,45,3.90
2018,04,22,02,46,3.90
2018,04,22,02,47,3.90
2018,04,22,02,48,3.90
2018,04,22,02,49,3.90
2018,04,22,02,50,3.90
2018,04,22,02,51,3.90
2018,04,22,02,52,3.90
2018,04,22,02,53,3.90
2018,04,22,02,54,3.90
2018,04,22,02,55,3.90
2018,04,22,02,56,3.90
2018,04,22,02,57,3.90
2018,04,22,02,58,3.90
2018,04,22,02,59,3.90
2018,04,22,03,00,3.80
2018,04,22,03,01,3.80
2018,04,22,03,02,3.80
2018,04,22,03,03,3.90
2018,04,22,03,04,3.90
2018,04,22,03,05,3.90
2018,04,22,03,06,3.90
2018,04,22,03,07,3.90
2018,04,22,03,08,4.00
2018,04,22,03,09,4.00
2018,04,22,03,10,4.00
2018,04,22,03,11,4.10
2018,04,22,03,12,4.20
2018,04,22,03,13,4.20
2018,04,22,03,14,4.20
2018,04,22,03,15,4.20
2018,04,22,03,16,4.20
2018,04,22,03,17,4.20
2018,04,22,03,18,4.20
2018,04,22,03,19,4.20
2018,04,22,03,20,4.20
2018,04,22,03,21,4.20
2018,04,22,03,22,4.20
2018,04,22,03,23,4.20
2018,04,22,03,24,4.20
2018,04,22,03,25,4.20
2018,04,22,03,26,4.20
2018,04,22,03,27,4.20
2018,04,22,03,28,4.30
2018,04,22,03,29,4.30
2018,04,22,03,30,4.30
2018,04,22,03,31,4.30
2018,04,22,03,32,4.30
2018,04,22,03,33,4.30
2018,04,22,03,34,4.30
2018,04,22,03,35,4.30
2018,04,22,03,36,4.30
2018,04,22,03,37,4.30
2018,04,22,03,38,4.30
2018,04,22,03,39,4.30
2018,04,22,03,40,4.30
2018,04,22,03,41,4.20
2018,04,22,03,42,4.20
2018,04,22,03,43,4.20
2018,04,22,03,44,4.20
2018,04,22,03,45,4.20
2018,04,22,03,46,4.10
2018,04,22,03,47,4.10
2018,04,22,03,48,4.10
2018,04,22,03,49,4.10
2018,04,22,03,50,4.10
2018,04,22,03,51,4.10
2018,04,22,03,52,4.10
2018,04,22,03,53,4.10
2018,04,22,03,54,4.10
2018,04,22,03,55,4.10
2018,04,22,03,56,4.10
2018,04,22,03,57,4.10
2018,04,22,03,58,4.10
2018,04,22,03,59,4.00
2018,04,22,04,00,4.00
2018,04,22,04,01,3.90
2018,04,22,04,02,3.90
2018,04,22,04,03,3.90
2018,04,22,04,04,3.80
2018,04,22,04,05,3.80
2018,04,22,04,06,3.80
2018,04,22,04,07,3.80
2018,04,22,04,08,3.80
2018,04,22,04,09,3.80
2018,04,22,04,10,3.80
2018,04,22,04,11,3.80
2018,04,22,04,12,3.80
2018,04,22,04,13,3.80
2018,04,22,04,14,3.80
2018,04,22,04,15,3.70
2018,04,22,04,16,3.70
2018,04,22,04,17,3.70
2018,04,22,04,18,3.70
2018,04,22,04,19,3.70
2018,04,22,04,20,3.60
2018,04,22,04,21,3.60
2018,04,22,04,22,3.60
2018,04,22,04,23,3.60
2018,04,22,04,24,3.60
2018,04,22,04,25,3.60
2018,04,22,04,26,3.50
2018,04,22,04,27,3.50
2018,04,22,04,28,3.50
2018,04,22,04,29,3.40
2018,04,22,04,30,3.40
2018,04,22,04,31,3.40
2018,04,22,04,32,3.40
2018,04,22,04,33,3.40
2018,04,22,04,34,3.40
2018,04,22,04,35,3.40
2018,04,22,04,36,3.40
2018,04,22,04,37,3.40
2018,04,22,04,38,3.40
2018,04,22,04,39,3.40
2018,04,22,04,40,3.30
2018,04,22,04,41,3.30
2018,04,22,04,42,3.40
2018,04,22,04,43,3.40
2018,04,22,04,44,3.40
2018,04,22,04,45,3.40
2018,04,22,04,46,3.40
2018,04,22,04,47,3.40
2018,04,22,04,48,3.40
2018,04,22,04,49,3.40
2018,04,22,04,50,3.50
2018,04,22,04,51,3.50
2018,04,22,04,52,3.60
2018,04,22,04,53,3.60
2018,04,22,04,54,3.60
2018,04,22,04,55,3.70
2018,04,22,04,56,3.70
2018,04,22,04,57,3.70
2018,04,22,04,58,3.80
2018,04,22,04,59,3.80
2018,04,22,05,00,3.90
2018,04,22,05,01,3.90
2018,04,22,05,02,3.90
2018,04,22,05,03,3.90
2018,04,22,05,04,3.90
2018,04,22,05,05,4.00
2018,04,22,05,06,4.00
2018,04,22,05,07,4.10
2018,04,22,05,08,4.10
2018,04,22,05,09,4.10
2018,04,22,05,10,4.10
2018,04,22,05,11,4.10
2018,04,22,05,12,4.10
2018,04,22,05,13,4.10
2018,04,22,05,14,4.10
2018,04,22,05,15,4.10
2018,04,22,05,16,4.10
2018,04,22,05,17,4.10
2018,04,22,05,18,4.10
2018,04,22,05,19,4.10
2018,04,22,05,20,4.10
2018,04,22,05,21,4.10
2018,04,22,05,22,4.10
2018,04,22,05,23,4.10
2018,04,22,05,24,4.10
2018,04,22,05,25,4.10
2018,04,22,05,26,4.10
2018,04,22,05,27,4.10
2018,04,22,05,28,4.10
2018,04,22,05,29,4.00
2018,04,22,05,30,4.00
2018,04,22,05,31,4.00
2018,04,22,05,32,4.00
2018,04,22,05,33,4.00
2018,04,22,05,34,4.00
2018,04,22,05,35,4.00
2018,04,22,05,36,4.10
2018,04,22,05,37,4.10
2018,04,22,05,38,4.10
2018,04,22,05,39,4.10
2018,04,22,05,40,4.10
2018,04,22,05,41,4.10
2018,04,22,05,42,4.00
2018,04,22,05,43,4.00
2018,04,22,05,44,4.00
2018,04,22,05,45,4.00
2018,04,22,05,46,3.90
2018,04,22,05,47,3.90
2018,04,22,05,48,3.90
2018,04,22,05,49,3.90
2018,04,22,05,50,3.90
2018,04,22,05,51,3.80
2018,04,22,05,52,3.80
2018,04,22,05,53,3.80
2018,04,22,05,54,3.80
2018,04,22,05,55,3.80
2018,04,22,05,56,3.80
2018,04,22,05,57,3.80
2018,04,22,05,58,3.80
2018,04,22,05,59,3.80
2018,04,22,06,00,3.80
2018,04,22,06,01,3.80
2018,04,22,06,02,3.80
2018,04,22,06,03,3.80
2018,04,22,06,04,3.80
2018,04,22,06,05,3.80
2018,04,22,06,06,3.80
2018,04,22,06,07,3.90
2018,04,22,06,08,3.90
2018,04,22,06,09,3.90
2018,04,22,06,10,4.00
2018,04,22,06,11,4.00
2018,04,22,06,12,4.00
2018,04,22,06,13,4.10
2018,04,22,06,14,4.00
2018,04,22,06,15,4.10
2018,04,22,06,16,4.10
2018,04,22,06,17,4.10
2018,04,22,06,18,4.10
2018,04,22,06,19,4.10
2018,04,22,06,20,4.10
2018,04,22,06,21,4.10
2018,04,22,06,22,4.10
2018,04,22,06,23,4.10
2018,04,22,06,24,4.10
2018,04,22,06,25,4.10
2018,04,22,06,26,4.00
2018,04,22,06,27,4.00
2018,04,22,06,28,3.90
2018,04,22,06,29,3.90
2018,04,22,06,30,3.80
2018,04,22,06,31,3.80
2018,04,22,06,32,3.80
2018,04,22,06,33,3.80
2018,04,22,06,34,3.80
2018,04,22,06,35,3.70
2018,04,22,06,36,3.80
2018,04,22,06,37,3.80
2018,04,22,06,38,3.80
2018,04,22,06,39,3.80
2018,04,22,06,40,3.80
2018,04,22,06,41,3.80
2018,04,22,06,42,3.90
2018,04,22,06,43,3.90
2018,04,22,06,44,3.90
2018,04,22,06,45,3.90
2018,04,22,06,46,3.90
2018,04,22,06,47,3.90
2018,04,22,06,48,3.90
2018,04,22,06,49,3.90
2018,04,22,06,50,3.80
2018,04,22,06,51,3.80
2018,04,22,06,52,3.80
2018,04,22,06,53,3.70
2018,04,22,06,54,3.70
2018,04,22,06,55,3.70
2018,04,22,06,56,3.60
2018,04,22,06,57,3.60
2018,04,22,06,58,3.50
2018,04,22,06,59,3.50
2018,04,22,07,00,3.50
2018,04,22,07,01,3.50
2018,04,22,07,02,3.50
2018,04,22,07,03,3.50
2018,04,22,07,04,3.50
2018,04,22,07,05,3.60
2018,04,22,07,06,3.70
2018,04,22,07,07,3.70
2018,04,22,07,08,3.70
2018,04,22,07,09,3.70
2018,04,22,07,10,3.80
2018,04,22,07,11,3.80
2018,04,22,07,12,3.80
2018,04,22,07,13,3.80
2018,04,22,07,14,3.90
2018,04,22,07,15,3.90
2018,04,22,07,16,3.90
2018,04,22,07,17,3.90
2018,04,22,07,18,4.00
2018,04,22,07,19,4.10
2018,04,22,07,20,4.20
2018,04,22,07,21,4.30
2018,04,22,07,22,4.30
2018,04,22,07,23,4.40
2018,04,22,07,24,4.40
2018,04,22,07,25,4.50
2018,04,22,07,26,4.50
2018,04,22,07,27,4.60
2018,04,22,07,28,4.70
2018,04,22,07,29,4.70
2018,04,22,07,30,4.80
2018,04,22,07,31,4.80
2018,04,22,07,32,4.80
2018,04,22,07,33,4.90
2018,04,22,07,34,4.90
2018,04,22,07,35,4.90
2018,04,22,07,36,4.90
2018,04,22,07,37,5.00
2018,04,22,07,38,5.00
2018,04,22,07,39,5.00
2018,04,22,07,40,5.10
2018,04,22,07,41,5.10
2018,04,22,07,42,5.20
2018,04,22,07,43,5.20
2018,04,22,07,44,5.20
2018,04,22,07,45,5.30
2018,04,22,07,46,5.30
2018,04,22,07,47,5.30
2018,04,22,07,48,5.40
2018,04,22,07,49,5.40
2018,04,22,07,50,5.40
2018,04,22,07,51,5.50
2018,04,22,07,52,5.50
2018,04,22,07,53,5.50
2018,04,22,07,54,5.50
2018,04,22,07,55,5.60
2018,04,22,07,56,5.60
2018,04,22,07,57,5.70
2018,04,22,07,58,5.70
2018,04,22,07,59,5.70
2018,04,22,08,00,5.70
2018,04,22,08,01,5.70
2018,04,22,08,02,5.80
2018,04,22,08,03,5.80
2018,04,22,08,04,5.80
2018,04,22,08,05,5.90
2018,04,22,08,06,5.90
2018,04,22,08,07,6.00
2018,04,22,08,08,6.00
2018,04,22,08,09,6.00
2018,04,22,08,10,6.10
2018,04,22,08,11,6.10
2018,04,22,08,12,6.10
2018,04,22,08,13,6.10
2018,04,22,08,14,6.10
2018,04,22,08,15,6.10
2018,04,22,08,16,6.20
2018,04,22,08,17,6.20
2018,04,22,08,18,6.20
2018,04,22,08,19,6.20
2018,04,22,08,20,6.20
2018,04,22,08,21,6.20
2018,04,22,08,22,6.20
2018,04,22,08,23,6.20
2018,04,22,08,24,6.20
2018,04,22,08,25,6.20
2018,04,22,08,26,6.20
2018,04,22,08,27,6.20
2018,04,22,08,28,6.30
2018,04,22,08,29,6.30
2018,04,22,08,30,6.30
2018,04,22,08,31,6.40
2018,04,22,08,32,6.40
2018,04,22,08,33,6.40
2018,04,22,08,34,6.50
2018,04,22,08,35,6.50
2018,04,22,08,36,6.60
2018,04,22,08,37,6.60
2018,04,22,08,38,6.70
2018,04,22,08,39,6.70
2018,04,22,08,40,6.80
2018,04,22,08,41,6.80
2018,04,22,08,42,6.80
2018,04,22,08,43,6.80
2018,04,22,08,44,6.80
2018,04,22,08,45,6.80
2018,04,22,08,46,6.80
2018,04,22,08,47,6.90
2018,04,22,08,48,6.90
2018,04,22,08,49,7.00
2018,04,22,08,50,7.00
2018,04,22,08,51,7.10
2018,04,22,08,52,7.10
2018,04,22,08,53,7.10
2018,04,22,08,54,7.10
2018,04,22,08,55,7.10
2018,04,22,08,56,7.10
2018,04,22,08,57,7.10
2018,04,22,08,58,7.10
2018,04,22,08,59,7.20
2018,04,22,09,00,7.20
2018,04,22,09,01,7.20
2018,04,22,09,02,7.20
2018,04,22,09,03,7.30
2018,04,22,09,04,7.30
2018,04,22,09,05,7.30
2018,04,22,09,06,7.30
2018,04,22,09,07,7.30
2018,04,22,09,08,7.40
2018,04,22,09,09,7.40
2018,04,22,09,10,7.50
2018,04,22,09,11,7.50
2018,04,22,09,12,7.60
2018,04,22,09,13,7.60
2018,04,22,09,14,7.60
2018,04,22,09,15,7.70
2018,04,22,09,16,7.70
2018,04,22,09,17,7.70
2018,04,22,09,18,7.70
2018,04,22,09,19,7.70
2018,04,22,09,20,7.70
2018,04,22,09,21,7.70
2018,04,22,09,22,7.70
2018,04,22,09,23,7.80
2018,04,22,09,24,7.80
2018,04,22,09,25,7.80
2018,04,22,09,26,7.90
2018,04,22,09,27,7.90
2018,04,22,09,28,8.00
2018,04,22,09,29,8.00
2018,04,22,09,30,8.00
2018,04,22,09,31,8.10
2018,04,22,09,32,8.10
2018,04,22,09,33,8.10
2018,04,22,09,34,8.20
2018,04,22,09,35,8.20
2018,04,22,09,36,8.30
2018,04,22,09,37,8.30
2018,04,22,09,38,8.30
2018,04,22,09,39,8.40
2018,04,22,09,40,8.40
2018,04,22,09,41,8.50
2018,04,22,09,42,8.60
2018,04,22,09,43,8.60
2018,04,22,09,44,8.70
2018,04,22,09,45,8.70
2018,04,22,09,46,8.60
2018,04,22,09,47,8.60
2018,04,22,09,48,8.60
2018,04,22,09,49,8.70
2018,04,22,09,50,8.70
2018,04,22,09,51,8.70
2018,04,22,09,52,8.70
2018,04,22,09,53,8.80
2018,04,22,09,54,8.80
2018,04,22,09,55,8.80
2018,04,22,09,56,8.80
2018,04,22,09,57,8.80
2018,04,22,09,58,8.80
2018,04,22,09,59,8.80
2018,04,22,10,00,8.90
2018,04,22,10,01,8.90
2018,04,22,10,02,8.90
2018,04,22,10,03,8.90
2018,04,22,10,04,9.00
2018,04,22,10,05,9.00
2018,04,22,10,06,9.10
2018,04,22,10,07,9.10
2018,04,22,10,08,9.10
2018,04,22,10,09,9.20
2018,04,22,10,10,9.20
2018,04,22,10,11,9.20
2018,04,22,10,12,9.20
2018,04,22,10,13,9.20
2018,04,22,10,14,9.20
2018,04,22,10,15,9.30
2018,04,22,10,16,9.30
2018,04,22,10,17,9.30
2018,04,22,10,18,9.40
2018,04,22,10,19,9.50
2018,04,22,10,20,9.50
2018,04,22,10,21,9.60
2018,04,22,10,22,9.60
2018,04,22,10,23,9.60
2018,04,22,10,24,9.50
2018,04,22,10,25,9.40
2018,04,22,10,26,9.40
2018,04,22,10,27,9.40
2018,04,22,10,28,9.40
2018,04,22,10,29,9.40
2018,04,22,10,30,9.40
2018,04,22,10,31,9.50
2018,04,22,10,32,9.50
2018,04,22,10,33,9.60
2018,04,22,10,34,9.60
2018,04,22,10,35,9.70
2018,04,22,10,36,9.70
2018,04,22,10,37,9.80
2018,04,22,10,38,9.80
2018,04,22,10,39,9.80
2018,04,22,10,40,9.80
2018,04,22,10,41,9.90
2018,04,22,10,42,9.90
2018,04,22,10,43,9.90
2018,04,22,10,44,9.90
2018,04,22,10,45,9.80
2018,04,22,10,46,9.80
2018,04,22,10,47,9.70
2018,04,22,10,48,9.70
2018,04,22,10,49,9.80
2018,04,22,10,50,9.80
2018,04,22,10,51,9.80
2018,04,22,10,52,9.80
2018,04,22,10,53,9.90
2018,04,22,10,54,10.00
2018,04,22,10,55,10.00
2018,04,22,10,56,10.00
2018,04,22,10,57,10.00
2018,04,22,10,58,10.10
2018,04,22,10,59,10.10
2018,04,22,11,00,10.10
2018,04,22,11,01,10.10
2018,04,22,11,02,10.20
2018,04,22,11,03,10.20
2018,04,22,11,04,10.20
2018,04,22,11,05,10.30
2018,04,22,11,06,10.30
2018,04,22,11,07,10.30
2018,04,22,11,08,10.30
2018,04,22,11,09,10.30
2018,04,22,11,10,10.30
2018,04,22,11,11,10.30
2018,04,22,11,12,10.30
2018,04,22,11,13,10.30
2018,04,22,11,14,10.40
2018,04,22,11,15,10.50
2018,04,22,11,16,10.50
2018,04,22,11,17,10.50
2018,04,22,11,18,10.60
2018,04,22,11,19,10.60
2018,04,22,11,20,10.60
2018,04,22,11,21,10.50
2018,04,22,11,22,10.50
2018,04,22,11,23,10.50
2018,04,22,11,24,10.50
2018,04,22,11,25,10.60
2018,04,22,11,26,10.70
2018,04,22,11,27,10.70
2018,04,22,11,28,10.70
2018,04,22,11,29,10.70
2018,04,22,11,30,10.70
2018,04,22,11,31,10.70
2018,04,22,11,32,10.70
2018,04,22,11,33,10.70
2018,04,22,11,34,10.70
2018,04,22,11,35,10.80
2018,04,22,11,36,10.80
2018,04,22,11,37,10.80
2018,04,22,11,38,10.80
2018,04,22,11,39,10.90
2018,04,22,11,40,11.00
2018,04,22,11,41,11.20
2018,04,22,11,42,11.20
2018,04,22,11,43,11.20
2018,04,22,11,44,11.10
2018,04,22,11,45,11.10
2018,04,22,11,46,11.00
2018,04,22,11,47,11.00
2018,04,22,11,48,10.90
2018,04,22,11,49,10.90
2018,04,22,11,50,10.90
2018,04,22,11,51,10.90
2018,04,22,11,52,10.90
2018,04,22,11,53,11.00
2018,04,22,11,54,11.10
2018,04,22,11,55,11.10
2018,04,22,11,56,11.10
2018,04,22,11,57,11.20
2018,04,22,11,58,11.20
2018,04,22,11,59,11.20
2018,04,22,12,00,11.20
2018,04,22,12,01,11.20
2018,04,22,12,02,11.20
2018,04,22,12,03,11.20
2018,04,22,12,04,11.20
2018,04,22,12,05,11.20
2018,04,22,12,06,11.20
2018,04,22,12,07,11.20
2018,04,22,12,08,11.30
2018,04,22,12,09,11.30
2018,04,22,12,10,11.20
2018,04,22,12,11,11.30
2018,04,22,12,12,11.20
2018,04,22,12,13,11.20
2018,04,22,12,14,11.30
2018,04,22,12,15,11.30
2018,04,22,12,16,11.20
2018,04,22,12,17,11.30
2018,04,22,12,18,11.30
2018,04,22,12,19,11.30
2018,04,22,12,20,11.30
2018,04,22,12,21,11.40
2018,04,22,12,22,11.40
2018,04,22,12,23,11.40
2018,04,22,12,24,11.50
2018,04,22,12,25,11.60
2018,04,22,12,26,11.60
2018,04,22,12,27,11.50
2018,04,22,12,28,11.50
2018,04,22,12,29,11.40
2018,04,22,12,30,11.40
2018,04,22,12,31,11.40
2018,04,22,12,32,11.40
2018,04,22,12,33,11.50
2018,04,22,12,34,11.60
2018,04,22,12,35,11.60
2018,04,22,12,36,11.70
2018,04,22,12,37,11.80
2018,04,22,12,38,11.80
2018,04,22,12,39,11.80
2018,04,22,12,40,11.80
2018,04,22,12,41,11.80
2018,04,22,12,42,11.80
2018,04,22,12,43,11.80
2018,04,22,12,44,11.80
2018,04,22,12,45,11.90
2018,04,22,12,46,11.90
2018,04,22,12,47,12.10
2018,04,22,12,48,12.10
2018,04,22,12,49,12.10
2018,04,22,12,50,12.20
2018,04,22,12,51,12.20
2018,04,22,12,52,12.40
2018,04,22,12,53,12.50
2018,04,22,12,54,12.50
2018,04,22,12,55,12.60
2018,04,22,12,56,12.50
2018,04,22,12,57,12.40
2018,04,22,12,58,12.40
2018,04,22,12,59,12.50
2018,04,22,13,00,12.60
2018,04,22,13,01,12.60
2018,04,22,13,02,12.60
2018,04,22,13,03,12.70
2018,04,22,13,04,12.80
2018,04,22,13,05,12.80
2018,04,22,13,06,12.90
2018,04,22,13,07,12.80
2018,04,22,13,08,12.80
2018,04,22,13,09,12.70
2018,04,22,13,10,12.60
2018,04,22,13,11,12.60
2018,04,22,13,12,12.70
2018,04,22,13,13,12.70
2018,04,22,13,14,12.80
2018,04,22,13,15,12.80
2018,04,22,13,16,12.80
2018,04,22,13,17,12.80
2018,04,22,13,18,12.80
2018,04,22,13,19,12.80
2018,04,22,13,20,12.70
2018,04,22,13,21,12.70
2018,04,22,13,22,12.70
2018,04,22,13,23,12.70
2018,04,22,13,24,12.70
2018,04,22,13,25,12.70
2018,04,22,13,26,12.70
2018,04,22,13,27,12.70
2018,04,22,13,28,12.60
2018,04,22,13,29,12.60
2018,04,22,13,30,12.60
2018,04,22,13,31,12.70
2018,04,22,13,32,12.70
2018,04,22,13,33,12.80
2018,04,22,13,34,12.80
2018,04,22,13,35,12.90
2018,04,22,13,36,12.90
2018,04,22,13,37,12.90
2018,04,22,13,38,13.00
2018,04,22,13,39,13.00
2018,04,22,13,40,13.10
2018,04,22,13,41,13.20
2018,04,22,13,42,13.30
2018,04,22,13,43,13.30
2018,04,22,13,44,13.40
2018,04,22,13,45,13.50
2018,04,22,13,46,13.50
2018,04,22,13,47,13.60
2018,04,22,13,48,13.60
2018,04,22,13,49,13.60
2018,04,22,13,50,13.70
2018,04,22,13,51,13.70
2018,04,22,13,52,13.80
2018,04,22,13,53,13.80
2018,04,22,13,54,13.90
2018,04,22,13,55,13.80
2018,04,22,13,56,13.70
2018,04,22,13,57,13.60
2018,04,22,13,58,13.60
2018,04,22,13,59,13.60
2018,04,22,14,00,13.60
2018,04,22,14,01,13.60
2018,04,22,14,02,13.60
2018,04,22,14,03,13.50
2018,04,22,14,04,13.40
2018,04,22,14,05,13.40
2018,04,22,14,06,13.40
2018,04,22,14,07,13.50
2018,04,22,14,08,13.50
2018,04,22,14,09,13.70
2018,04,22,14,10,13.80
2018,04,22,14,11,13.90
2018,04,22,14,12,14.00
2018,04,22,14,13,14.20
2018,04,22,14,14,14.30
2018,04,22,14,15,14.30
2018,04,22,14,16,14.40
2018,04,22,14,17,14.30
2018,04,22,14,18,14.30
2018,04,22,14,19,14.30
2018,04,22,14,20,14.30
2018,04,22,14,21,14.20
2018,04,22,14,22,14.20
2018,04,22,14,23,14.20
2018,04,22,14,24,14.10
2018,04,22,14,25,14.10
2018,04,22,14,26,14.10
2018,04,22,14,27,14.00
2018,04,22,14,28,13.90
2018,04,22,14,29,13.90
2018,04,22,14,30,13.90
2018,04,22,14,31,13.80
2018,04,22,14,32,13.80
2018,04,22,14,33,13.80
2018,04,22,14,34,13.70
2018,04,22,14,35,13.80
2018,04,22,14,36,13.80
2018,04,22,14,37,13.90
2018,04,22,14,38,13.90
2018,04,22,14,39,13.90
2018,04,22,14,40,14.00
2018,04,22,14,41,14.00
2018,04,22,14,42,13.90
2018,04,22,14,43,13.90
2018,04,22,14,44,13.90
2018,04,22,14,45,13.90
2018,04,22,14,46,14.00
2018,04,22,14,47,14.10
2018,04,22,14,48,14.10
2018,04,22,14,49,14.20
2018,04,22,14,50,14.30
2018,04,22,14,51,14.40
2018,04,22,14,52,14.50
2018,04,22,14,53,14.60
2018,04,22,14,54,14.70
2018,04,22,14,55,14.80
2018,04,22,14,56,14.80
2018,04,22,14,57,14.80
2018,04,22,14,58,14.80
2018,04,22,14,59,14.70
2018,04,22,15,00,14.70
2018,04,22,15,01,14.60
2018,04,22,15,02,14.50
2018,04,22,15,03,14.50
2018,04,22,15,04,14.40
2018,04,22,15,05,14.40
2018,04,22,15,06,14.50
2018,04,22,15,07,14.70
2018,04,22,15,08,14.80
2018,04,22,15,09,15.00
2018,04,22,15,10,15.20
2018,04,22,15,11,15.20
2018,04,22,15,12,15.30
2018,04,22,15,13,15.40
2018,04,22,15,14,15.40
2018,04,22,15,15,15.50
2018,04,22,15,16,15.60
2018,04,22,15,17,15.60
2018,04,22,15,18,15.60
2018,04,22,15,19,15.50
2018,04,22,15,20,15.50
2018,04,22,15,21,15.40
2018,04,22,15,22,15.40
2018,04,22,15,23,15.40
2018,04,22,15,24,15.40
2018,04,22,15,25,15.40
2018,04,22,15,26,15.40
2018,04,22,15,27,15.40
2018,04,22,15,28,15.40
2018,04,22,15,29,15.40
2018,04,22,15,30,15.40
2018,04,22,15,31,15.30
2018,04,22,15,32,15.20
2018,04,22,15,33,15.20
2018,04,22,15,34,15.20
2018,04,22,15,35,15.20
2018,04,22,15,36,15.20
2018,04,22,15,37,15.30
2018,04,22,15,38,15.30
2018,04,22,15,39,15.30
2018,04,22,15,40,15.30
2018,04,22,15,41,15.30
2018,04,22,15,42,15.30
2018,04,22,15,43,15.40
2018,04,22,15,44,15.40
2018,04,22,15,45,15.50
2018,04,22,15,46,15.50
2018,04,22,15,47,15.50
2018,04,22,15,48,15.50
2018,04,22,15,49,15.50
2018,04,22,15,50,15.50
2018,04,22,15,51,15.50
2018,04,22,15,52,15.50
2018,04,22,15,53,15.50
2018,04,22,15,54,15.50
2018,04,22,15,55,15.50
2018,04,22,15,56,15.50
2018,04,22,15,57,15.60
2018,04,22,15,58,15.60
2018,04,22,15,59,15.60
2018,04,22,16,00,15.60
2018,04,22,16,01,15.60
2018,04,22,16,02,15.60
2018,04,22,16,03,15.70
2018,04,22,16,04,15.70
2018,04,22,16,05,15.60
2018,04,22,16,06,15.60
2018,04,22,16,07,15.60
2018,04,22,16,08,15.60
2018,04,22,16,09,15.50
2018,04,22,16,10,15.50
2018,04,22,16,11,15.60
2018,04,22,16,12,15.70
2018,04,22,16,13,15.70
2018,04,22,16,14,15.70
2018,04,22,16,15,15.70
2018,04,22,16,16,15.60
2018,04,22,16,17,15.60
2018,04,22,16,18,15.50
2018,04,22,16,19,15.40
2018,04,22,16,20,15.30
2018,04,22,16,21,15.30
2018,04,22,16,22,15.30
2018,04,22,16,23,15.30
2018,04,22,16,24,15.30
2018,04,22,16,25,15.40
2018,04,22,16,26,15.40
2018,04,22,16,27,15.40
2018,04,22,16,28,15.50
2018,04,22,16,29,15.50
2018,04,22,16,30,15.50
2018,04,22,16,31,15.50
2018,04,22,16,32,15.40
2018,04,22,16,33,15.40
2018,04,22,16,34,15.30
2018,04,22,16,35,15.30
2018,04,22,16,36,15.30
2018,04,22,16,37,15.30
2018,04,22,16,38,15.30
2018,04,22,16,39,15.30
2018,04,22,16,40,15.40
2018,04,22,16,41,15.50
2018,04,22,16,42,15.60
2018,04,22,16,43,15.70
2018,04,22,16,44,15.70
2018,04,22,16,45,15.70
2018,04,22,16,46,15.70
2018,04,22,16,47,15.70
2018,04,22,16,48,15.70
2018,04,22,16,49,15.70
2018,04,22,16,50,15.70
2018,04,22,16,51,15.70
2018,04,22,16,52,15.70
2018,04,22,16,53,15.70
2018,04,22,16,54,15.70
2018,04,22,16,55,15.70
2018,04,22,16,56,15.70
2018,04,22,16,57,15.70
2018,04,22,16,58,15.70
2018,04,22,16,59,15.60
2018,04,22,17,00,15.60
2018,04,22,17,01,15.60
2018,04,22,17,02,15.60
2018,04,22,17,03,15.60
2018,04,22,17,04,15.60
2018,04,22,17,05,15.60
2018,04,22,17,06,15.60
2018,04,22,17,07,15.60
2018,04,22,17,08,15.60
2018,04,22,17,09,15.60
2018,04,22,17,10,15.70
2018,04,22,17,11,15.70
2018,04,22,17,12,15.70
2018,04,22,17,13,15.70
2018,04,22,17,14,15.70
2018,04,22,17,15,15.70
2018,04,22,17,16,15.70
2018,04,22,17,17,15.70
2018,04,22,17,18,15.70
2018,04,22,17,19,15.70
2018,04,22,17,20,15.70
2018,04,22,17,21,15.70
2018,04,22,17,22,15.70
2018,04,22,17,23,15.70
2018,04,22,17,24,15.80
2018,04,22,17,25,15.90
2018,04,22,17,26,15.90
2018,04,22,17,27,15.80
2018,04,22,17,28,15.70
2018,04,22,17,29,15.50
2018,04,22,17,30,15.40
2018,04,22,17,31,15.20
2018,04,22,17,32,15.10
2018,04,22,17,33,15.10
2018,04,22,17,34,15.00
2018,04,22,17,35,15.00
2018,04,22,17,36,15.00
2018,04,22,17,37,15.00
2018,04,22,17,38,15.00
2018,04,22,17,39,15.10
2018,04,22,17,40,15.10
2018,04,22,17,41,15.10
2018,04,22,17,42,15.00
2018,04,22,17,43,15.00
2018,04,22,17,44,14.90
2018,04,22,17,45,14.90
2018,04,22,17,46,14.80
2018,04,22,17,47,14.80